Regional Weather Roundup
Issued by NWS

Home | Current Version | Previous Version | Text Only | Print | Product List | Glossary Off
Versions: 1 2 3 4 5 6 7 8 9 10 11 12 13 14 15 16 17 18 19 20 21 22 23 24 25 26 27 28 29 30 31 32 33 34 35 36 37 38 39 40 41 42 43 44 45 46 47 48 49 50

000
ASUS43 KDTX 250401
RWRMI
MICHIGAN HOURLY REGIONAL WEATHER ROUNDUP
NATIONAL WEATHER SERVICE DETROIT/PONTIAC MI
1200 AM EDT TUE JUL 25 2017

NOTE: "FAIR" INDICATES FEW OR NO CLOUDS BELOW 12,000 FEET WITH NO
SIGNIFICANT WEATHER AND/OR OBSTRUCTION TO VISIBILITY.

MIZ047>049-052>055-059>063-066>070-074>076-081>083-250500-
SOUTHEAST LOWER MICHIGAN

CITY           SKY/WX    TMP DP  RH WIND       PRES   REMARKS
ADRIAN         CLEAR     57  55  93 N6        30.13R
ALMA           CLEAR     59  56  89 SW3       30.13R
ANN ARBOR      CLEAR     52  50  93 CALM      30.12R
BAD AXE        CLEAR     53  53  98 CALM      30.13R
CARO           CLEAR     54  52  94 CALM      30.12S
DETROIT CITY   CLEAR     65  54  67 NW6       30.11R
DETROIT        PTCLDY    64  53  67 CALM      30.12R
FLINT          CLEAR     56  52  86 CALM      30.13R
GROSSE ILE     CLEAR     64  53  68 N3        30.10R
HILLSDALE      MOCLDY    54  52  94 CALM      30.12S
HOWELL         CLEAR     59  54  85 CALM      30.13R

CITY           SKY/WX    TMP DP  RH WIND       PRES   REMARKS
JACKSON        CLEAR     60  54  80 E3        30.13R
LAMBERTVILLE   CLEAR     60  52  74 CALM      30.11R
LANSING        CLEAR     62  54  74 E5        30.13R
LAPEER         FAIR      56  55  97 CALM      30.12S
MASON          CLEAR     58  56  94 CALM      30.13R
MONROE         CLEAR     60  55  82 CALM      30.11R
MT. CLEMENS    CLEAR     59  55  85 N7        30.09R
PONTIAC        CLEAR     62  54  74 N6        30.11R
PORT HOPE        N/A     66  55  67 CALM      30.10R
PORT HURON     CLEAR     61  55  82 NW6       30.10S
TRI CITIES     CLEAR     63  54  72 CALM      30.14R
MIDLAND        FAIR      57  56  97 CALM      30.13R
TROY           CLEAR     64  52  66 N6        30.13R
SAGINAW HB     CLEAR     59  52  77 CALM      30.13R
$$
MIZ043>046-050>051-056>058-064>065-071>073-077>080-250500-
SOUTHWEST LOWER MICHIGAN

CITY           SKY/WX    TMP DP  RH WIND       PRES   REMARKS
BATTLE CREEK   CLEAR     61  57  87 CALM      30.12R
BENTON HARBOR  CLEAR     62  59  90 CALM      30.11R
BIG RAPIDS     CLEAR     62  56  79 NW3       30.13R
COLDWATER      CLEAR     59  59 100 CALM      30.12R
FREMONT        FAIR      62  54  74 CALM      30.11S
HOLLAND        CLEAR     60  57  89 CALM      30.12R
GRAND RAPIDS   CLEAR     64  58  80 W3        30.11R
IONIA          FAIR      61  56  83 E6        30.12R
KALAMAZOO      CLEAR     62  55  77 CALM      30.12R
LUDINGTON      MOCLDY    58  52  81 CALM      30.12R
MARSHALL       CLEAR     58  57  98 CALM      30.12R
MOUNT PLEASANT CLEAR     61  55  80 CALM      30.13R
MUSKEGON       CLEAR     65  56  72 N6        30.11R
SOUTH HAVEN    CLEAR     61  60  97 CALM      30.12R
$$
MIZ016>042-250500-
NORTHERN LOWER MICHIGAN

CITY           SKY/WX    TMP DP  RH WIND       PRES   REMARKS
ALPENA         CLEAR     57  56  96 CALM      30.13R
BELLAIRE       CLEAR     52  49  92 CALM      30.14R
CADILLAC       CLEAR     56  49  75 CALM      30.14S
CHARLEVOIX     CLEAR     57  56  94 CALM      30.16S
FRANKFORT      CLEAR     53  52  95 CALM      30.12F
GAYLORD        CLEAR     55  48  77 CALM      30.15R
GRAYLING       CLEAR     52  49  90 CALM      30.16R
HARBOR SPRINGS CLEAR     58  51  78 NE5       30.14R
HOUGHTON LAKE  CLEAR     53  50  89 CALM      30.16R
MANISTEE       CLEAR     54  52  93 E3        30.12R
OSCODA         CLEAR     56  53  91 CALM      30.12R
PELLSTON       CLEAR     52  51  97 CALM      30.14R
ROGERS CITY    CLEAR     58  55  87 W3        30.14R
TRAVERSE CITY  CLEAR     57  51  80 CALM      30.12R
$$
MIZ007>008-015-250500-
EASTERN UPPER MICHIGAN

CITY           SKY/WX    TMP DP  RH WIND       PRES   REMARKS
KINROSS        CLEAR     56  51  84 NW3       30.14R
MACKINAC ISLAN CLEAR     58  54  86 N6        30.14R
NEWBERRY       CLEAR     49  49  97 CALM      30.14S
S. S. MARIE    CLEAR     58  50  75 W3        30.13R
MUNISING         N/A     55  54  96 S8        30.11S
$$
MIZ004>006-011>014-085-250500-
CENTRAL UPPER MICHIGAN

CITY           SKY/WX    TMP DP  RH WIND       PRES   REMARKS
MANISTIQUE     CLEAR     53  49  89 CALM      30.12S
ESCANABA       CLEAR     58  57  97 CALM      30.12S
MENOMINEE      CLEAR     61  56  83 CALM      30.13R
SAWYER-GWINN   CLEAR     60  53  77 SE5       30.14R
$$
MIZ001>003-009>011-084-250500-
WESTERN UPPER MICHIGAN

CITY           SKY/WX    TMP DP  RH WIND       PRES   REMARKS
IRON MOUNTAIN  CLEAR     61  54  77 CALM      30.11S
HOUGHTON       CLEAR     59  51  75 E6        30.09S
COPPER HARBOR    N/A     61  51  70 SW7       30.08S
IRONWOOD       CLOUDY    61  55  81 S6        30.08F
$$

ABBREVIATIONS USED IN REMARKS
   TC - TEMPERATURE IN CELSIUS
  WCI - WIND CHILL INDEX
   HX - HEAT INDEX
  VSB - VISIBILITY





USA.gov is the U.S. government's official web portal to all federal, state and local government web resources and services.